Regional Weather Roundup
Issued by NWS

Home | Current Version | Previous Version | Text Only | Print | Product List | Glossary On
Versions: 1 2 3 4 5 6 7 8 9 10 11 12 13 14 15 16 17 18 19 20 21 22 23 24 25 26 27 28 29 30 31 32 33 34 35 36 37 38 39 40 41 42 43 44 45 46 47 48 49 50
000
ASUS45 KCYS 241110
RWRWY

WYOMING REGIONAL WEATHER ROUNDUP
NATIONAL WEATHER SERVICE CHEYENNE WY
500 AM MDT THU AUG 24 2017

NOTE:  "FAIR" INDICATES FEW OR NO CLOUDS BELOW 12,000 FEET
WITH NO SIGNIFICANT WEATHER AND/OR OBSTRUCTIONS TO VISIBILITY.

WYZ001-241200-
YELLOWSTONE NATIONAL PARK

CITY           SKY/WX    TMP DP  RH WIND       PRES   REMARKS
LK YELLOWSTONE   N/A     47  47 100 CALM      30.27F
W YELLOWSTONE  NOT AVBL

$$
WYZ002>013-054>058-071-098>099-241200-
NORTHERN WYOMING

CITY           SKY/WX    TMP DP  RH WIND       PRES   REMARKS
JACKSON        FAIR      43  40  89 NE3       30.22S
CODY           FAIR      68  42  38 SW5       30.03S
GREYBULL       FAIR      62  41  46 SE5       29.94S
WORLAND        FAIR      65  37  35 S7        29.96S
SHERIDAN       FAIR      56  42  59 CALM      29.94F
BUFFALO        FAIR      67  35  30 CALM      30.01F
GILLETTE       FAIR      62  47  57 N3        29.99R
HULETT         FAIR      59  43  55 CALM      30.01S
NEWCASTLE      FAIR      61  45  55 SE3       30.01F

$$
WYZ014>020-022>026-101>103-241200-
CENTRAL WYOMING

CITY           SKY/WX    TMP DP  RH WIND       PRES   REMARKS
BIG PINEY      MOCLDY    41  38  89 CALM      30.24F
PINEDALE       PTSUNNY   41  39  93 NW8       30.26S
DUBOIS         FAIR      55  37  50 N15G23    30.20R
LANDER           N/A    N/A N/A N/A MISG      30.06S
RIVERTON       FAIR      61  39  44 W10       30.06S
CASPER         MOCLDY    68  42  38 S14       30.05S
DOUGLAS        FAIR      62  47  57 SE3       30.05S

$$
WYZ021-027>030-104>119-241200-
SOUTHERN WYOMING

CITY           SKY/WX    TMP DP  RH WIND       PRES   REMARKS
EVANSTON       FAIR      48  41  76 SW8       30.24F
KEMMERER         N/A     46  41  81 N7        30.25S
FORT BRIDGER   SUNNY     57  39  51 W6        30.26S
ROCK SPRINGS   FAIR      50  39  66 S8        30.22F
DIXON          FAIR      47  39  74 NE5       30.24S
RAWLINS        FAIR      52  39  61 NW3       30.21S
SARATOGA       FAIR      46  43  87 CALM      30.24S
LARAMIE        FAIR      46  41  82 S9        30.23S
CHEYENNE       FAIR      57  42  57 W6        30.14S
TORRINGTON     FAIR      59  51  75 CALM      30.00S
PINE BLUFFS    CLOUDY    59  52  77 W3        30.08S

$$



USA.gov is the U.S. government's official web portal to all federal, state and local government web resources and services.